Oelwein, IA

6:44 AM CST on February 20, 2017 (GMT -0600)
Oelwein Municipal

Weather History for KOLZ - February, 2014

Change the Weather History Date:

Saturday, February 22, 2014

  Actual Average Record
Temperature  
Mean Temperature 12 °F -  
Max Temperature 19 °F 35 °F 60 °F (1984)
Min Temperature 6 °F 18 °F -11 °F (1963)
Degree Days  
Heating Degree Days 52    
Moisture  
Dew Point 7 °F    
Average Humidity 75    
Maximum Humidity 92    
Minimum Humidity 63    
Precipitation  
Precipitation 0.00 in - - ()
Sea Level Pressure  
Sea Level Pressure 30.00 in    
Wind  
Wind Speed 10 mph (WNW)    
Max Wind Speed 15 mph    
Max Gust Speed -    
Visibility 10 miles    
Events      
Averages and records for this station are not official NWS values.
T = Trace of Precipitation, MM = Missing Value Source: NWS Daily Summary

Daily Weather History Graph

Daily Weather History Graph

Search for Another Location

Airport or City:

Trip Planner

Search our weather history database for the weather conditions in past years. The results will help you decide how hot, cold, wet, or windy it might be!

Date:

Astronomy

Feb. 22, 2014 Rise Set
Actual Time 6:54 AM CST 5:48 PM CST
Civil Twilight 6:25 AM CST 6:17 PM CST
Nautical Twilight 5:53 AM CST 6:50 PM CST
Astronomical Twilight 5:20 AM CST 7:22 PM CST
Moon 12:53 AM CST (2/22) 10:56 AM CST (2/22)
Length of Visible Light 11h 51m
Length of Day
10h 54m
Waning Gibbous, 50% of the Moon is Illuminated
Feb 22
Waning Gibbous
Mar 1
New
Mar 8
First Quarter
Mar 16
Full
Mar 23
Last Quarter

Hourly Weather History & Observations

Time (CST) Temp. Windchill Dew Point Humidity Pressure Visibility Wind Dir Wind Speed Gust Speed Precip Events Conditions
12:15 AM 14.0 °F 2.0 °F 8.6 °F 79% 29.84 in 10.0 mi West 9.2 mph - N/A   Clear
12:35 AM 14.0 °F 0.5 °F 6.8 °F 73% 29.85 in 10.0 mi West 11.5 mph - N/A   Clear
12:55 AM 12.2 °F -1.0 °F 6.8 °F 79% 29.85 in 10.0 mi West 10.4 mph - N/A   Clear
1:15 AM 10.4 °F -2.4 °F 5.0 °F 79% 29.86 in 10.0 mi West 9.2 mph - N/A   Clear
1:35 AM 10.4 °F -3.3 °F 5.0 °F 79% 29.87 in 10.0 mi West 10.4 mph - N/A   Clear
1:55 AM 12.2 °F 0.7 °F 6.8 °F 79% 29.86 in 10.0 mi West 8.1 mph - N/A   Clear
2:15 AM 10.4 °F -3.3 °F 5.0 °F 79% 29.87 in 10.0 mi West 10.4 mph - N/A   Clear
2:35 AM 10.4 °F -4.1 °F 5.0 °F 79% 29.88 in 10.0 mi West 11.5 mph - N/A   Clear
2:55 AM 12.2 °F -1.8 °F 6.8 °F 79% 29.88 in 10.0 mi West 11.5 mph - N/A   Clear
3:15 AM 12.2 °F -1.0 °F 6.8 °F 79% 29.88 in 10.0 mi WNW 10.4 mph - N/A   Partly Cloudy
3:35 AM 14.0 °F 0.5 °F 6.8 °F 73% 29.88 in 10.0 mi WNW 11.5 mph - N/A   Mostly Cloudy
3:55 AM 12.2 °F -1.0 °F 6.8 °F 79% 29.88 in 10.0 mi WNW 10.4 mph - N/A   Overcast
4:15 AM 12.2 °F -0.2 °F 5.0 °F 73% 29.89 in 10.0 mi WNW 9.2 mph - N/A   Mostly Cloudy
4:35 AM 12.2 °F -1.0 °F 5.0 °F 73% 29.89 in 10.0 mi WNW 10.4 mph - N/A   Mostly Cloudy
4:55 AM 12.2 °F -1.0 °F 6.8 °F 79% 29.91 in 10.0 mi West 10.4 mph - N/A   Mostly Cloudy
5:15 AM 12.2 °F 0.7 °F 6.8 °F 79% 29.90 in 10.0 mi NW 8.1 mph - N/A   Overcast
5:35 AM 14.0 °F 1.2 °F 6.8 °F 73% 29.95 in 10.0 mi West 10.4 mph - N/A   Overcast
5:55 AM 14.0 °F 1.2 °F 6.8 °F 73% 29.94 in 10.0 mi WNW 10.4 mph - N/A   Overcast
6:15 AM 14.0 °F 1.2 °F 6.8 °F 73% 29.94 in 10.0 mi NW 10.4 mph - N/A   Overcast
6:35 AM 14.0 °F 1.2 °F 6.8 °F 73% 29.94 in 10.0 mi WNW 10.4 mph - N/A   Mostly Cloudy
6:55 AM 14.0 °F 1.2 °F 6.8 °F 73% 29.95 in 10.0 mi WNW 10.4 mph - N/A   Overcast
7:15 AM 12.2 °F -1.0 °F 6.8 °F 79% 29.96 in 10.0 mi NW 10.4 mph - N/A   Mostly Cloudy
7:35 AM 12.2 °F -2.5 °F 6.8 °F 79% 29.97 in 10.0 mi WNW 12.7 mph - N/A   Mostly Cloudy
7:55 AM 12.2 °F -2.5 °F 6.8 °F 79% 29.98 in 10.0 mi NW 12.7 mph - N/A   Mostly Cloudy
8:15 AM 12.2 °F -1.8 °F 5.0 °F 73% 29.99 in 10.0 mi NW 11.5 mph - N/A   Mostly Cloudy
8:35 AM 12.2 °F -0.2 °F 6.8 °F 79% 30.00 in 10.0 mi NW 9.2 mph - N/A   Overcast
8:55 AM 14.0 °F 3.9 °F 6.8 °F 73% 30.00 in 10.0 mi NNW 6.9 mph - N/A   Mostly Cloudy
9:15 AM 14.0 °F 1.2 °F 6.8 °F 73% 30.01 in 10.0 mi NW 10.4 mph - N/A   Mostly Cloudy
9:35 AM 14.0 °F 2.9 °F 6.8 °F 73% 30.01 in 10.0 mi WNW 8.1 mph - N/A   Mostly Cloudy
9:55 AM 14.0 °F 2.0 °F 6.8 °F 73% 30.02 in 10.0 mi WNW 9.2 mph - N/A   Mostly Cloudy
10:15 AM 15.8 °F 4.2 °F 6.8 °F 68% 30.02 in 10.0 mi WNW 9.2 mph - N/A   Mostly Cloudy
10:35 AM 15.8 °F 6.1 °F 6.8 °F 68% 30.02 in 10.0 mi West 6.9 mph - N/A   Scattered Clouds
10:55 AM 15.8 °F 4.2 °F 6.8 °F 68% 30.04 in 10.0 mi WNW 9.2 mph - N/A   Partly Cloudy
11:15 AM 15.8 °F 3.4 °F 8.6 °F 73% 30.03 in 10.0 mi WNW 10.4 mph - N/A   Scattered Clouds
11:35 AM 17.6 °F 5.7 °F 8.6 °F 68% 30.03 in 10.0 mi WNW 10.4 mph - N/A   Partly Cloudy
11:55 AM 17.6 °F 5.7 °F 8.6 °F 68% 30.03 in 10.0 mi NNW 10.4 mph - N/A   Clear
12:15 PM 17.6 °F 7.3 °F 8.6 °F 68% 30.03 in 10.0 mi WNW 8.1 mph - N/A   Clear
12:35 PM 17.6 °F 8.2 °F 8.6 °F 68% 30.03 in 10.0 mi West 6.9 mph - N/A   Clear
12:55 PM 17.6 °F 7.3 °F 8.6 °F 68% 30.02 in 10.0 mi WSW 8.1 mph - N/A   Clear
1:15 PM 17.6 °F 8.2 °F 8.6 °F 68% 30.01 in 10.0 mi WNW 6.9 mph - N/A   Clear
1:35 PM 17.6 °F 5.7 °F 8.6 °F 68% 30.00 in 10.0 mi WNW 10.4 mph - N/A   Clear
1:55 PM 19.4 °F 7.2 °F 8.6 °F 63% 30.00 in 10.0 mi WNW 11.5 mph - N/A   Clear
2:15 PM 19.4 °F 7.9 °F 8.6 °F 63% 30.02 in 10.0 mi West 10.4 mph - N/A   Clear
2:35 PM 19.4 °F 6.6 °F 8.6 °F 63% 30.01 in 10.0 mi WNW 12.7 mph - N/A   Clear
2:55 PM 19.4 °F 5.5 °F 8.6 °F 63% 30.02 in 10.0 mi WNW 15.0 mph - N/A   Clear
3:15 PM 19.4 °F 7.2 °F 8.6 °F 63% 30.02 in 10.0 mi WNW 11.5 mph - N/A   Clear
3:35 PM 19.4 °F 7.2 °F 10.4 °F 68% 30.02 in 10.0 mi WNW 11.5 mph - N/A   Clear
3:55 PM 19.4 °F 7.2 °F 8.6 °F 63% 30.02 in 10.0 mi WNW 11.5 mph - N/A   Clear
4:15 PM 17.6 °F 5.7 °F 8.6 °F 68% 30.02 in 10.0 mi WNW 10.4 mph - N/A   Clear
4:35 PM 17.6 °F 4.3 °F 8.6 °F 68% 30.02 in 10.0 mi WNW 12.7 mph - N/A   Clear
4:55 PM 17.6 °F 3.7 °F 8.6 °F 68% 30.03 in 10.0 mi West 13.8 mph - N/A   Clear
5:15 PM 17.6 °F 4.3 °F 8.6 °F 68% 30.04 in 10.0 mi WNW 12.7 mph - N/A   Clear
5:35 PM 15.8 °F 1.4 °F 8.6 °F 73% 30.05 in - WNW 13.8 mph - N/A   Clear
5:55 PM 15.8 °F 2.7 °F 8.6 °F 73% 30.06 in 10.0 mi WNW 11.5 mph - N/A   Clear
6:15 PM 14.0 °F 1.2 °F 8.6 °F 79% 30.07 in 10.0 mi WNW 10.4 mph - N/A   Clear
6:35 PM 14.0 °F 0.5 °F 6.8 °F 73% 30.07 in 10.0 mi WNW 11.5 mph - N/A   Clear
6:55 PM 14.0 °F 1.2 °F 6.8 °F 73% 30.08 in 10.0 mi WNW 10.4 mph - N/A   Clear
7:15 PM 14.0 °F 2.0 °F 6.8 °F 73% 30.09 in 10.0 mi WNW 9.2 mph - N/A   Clear
7:35 PM 12.2 °F -0.2 °F 6.8 °F 79% 30.09 in 10.0 mi WNW 9.2 mph - N/A   Clear
7:55 PM 12.2 °F -0.2 °F 6.8 °F 79% 30.10 in 10.0 mi WNW 9.2 mph - N/A   Clear
8:15 PM 12.2 °F -0.2 °F 6.8 °F 79% 30.11 in 10.0 mi West 9.2 mph - N/A   Clear
8:35 PM 10.4 °F -1.5 °F 5.0 °F 79% 30.12 in 10.0 mi WNW 8.1 mph - N/A   Clear
8:55 PM 8.6 °F -4.7 °F 5.0 °F 85% 30.12 in 10.0 mi NW 9.2 mph - N/A   Clear
9:15 PM 8.6 °F -2.6 °F 5.0 °F 85% 30.12 in 10.0 mi NW 6.9 mph - N/A   Clear
9:35 PM 10.4 °F -1.5 °F 5.0 °F 79% 30.12 in 10.0 mi WNW 8.1 mph - N/A   Clear
9:55 PM 8.6 °F -3.7 °F 5.0 °F 85% 30.12 in 10.0 mi NW 8.1 mph - N/A   Clear
10:15 PM 8.6 °F -1.3 °F 3.2 °F 79% 30.13 in 10.0 mi NW 5.8 mph - N/A   Clear
10:35 PM 6.8 °F -3.5 °F 3.2 °F 85% 30.12 in 10.0 mi NW 5.8 mph - N/A   Clear
10:55 PM 6.8 °F -3.5 °F 3.2 °F 85% 30.13 in 10.0 mi NW 5.8 mph - N/A   Clear
11:15 PM 6.8 °F -0.1 °F 5.0 °F 92% 30.13 in 10.0 mi WNW 3.5 mph - N/A   Clear
11:35 PM 6.8 °F -3.5 °F 5.0 °F 92% 30.13 in 10.0 mi WNW 5.8 mph - N/A   Clear
11:55 PM 6.8 °F -2.0 °F 3.2 °F 85% 30.13 in 10.0 mi WNW 4.6 mph - N/A   Partly Cloudy